,

(GMT )
Prerov

Weather History for LKPO - March, 2013

Change the Weather History Date:

Saturday, March 9, 2013

  Actual Average Record
Temperature  
Mean Temperature 39 °F -  
Max Temperature 41 °F - - ()
Min Temperature 37 °F - - ()
Degree Days  
Heating Degree Days 26    
Moisture  
Dew Point 34 °F    
Average Humidity 85    
Maximum Humidity 93    
Minimum Humidity 76    
Precipitation  
Precipitation 0.00 in - - ()
Sea Level Pressure  
Sea Level Pressure 29.64 in    
Wind  
Wind Speed 10 mph ()    
Max Wind Speed 16 mph    
Max Gust Speed -    
Visibility 3.1 miles    
Events Rain    
T = Trace of Precipitation, MM = Missing Value Source: Averaged Metar Reports

Daily Weather History Graph

Daily Weather History Graph

Search for Another Location

Airport or City:

Trip Planner

Search our weather history database for the weather conditions in past years. The results will help you decide how hot, cold, wet, or windy it might be!

Date:

Astronomy

Mar. 09, 2013 Rise Set
Actual Time 6:16 AM CET 5:46 PM CET
Civil Twilight 5:44 AM CET 6:17 PM CET
Nautical Twilight 5:07 AM CET 6:55 PM CET
Astronomical Twilight 4:30 AM CET 7:32 PM CET
Moon 4:40 AM CET (3/9) 3:19 PM CET (3/9)
Length of Visible Light 12h 33m
Length of Day
11h 29m
Waning Crescent, 7% of the Moon is Illuminated
Mar 9
Waning Crescent
Mar 11
New
Mar 19
First Quarter
Mar 27
Full
Apr 3
Last Quarter

Hourly Weather History & Observations

Time (CET) Temp. Windchill Dew Point Humidity Pressure Visibility Wind Dir Wind Speed Gust Speed Precip Events Conditions
12:00 AM 37.4 °F 28.5 °F 35.6 °F 93% 29.65 in 2.2 mi ENE 15.0 mph - N/A   Mostly Cloudy
1:00 AM 37.4 °F 28.2 °F 35.6 °F 93% 29.65 in 2.2 mi ENE 16.1 mph - N/A   Mist
2:00 AM 37.4 °F 29.8 °F 33.8 °F 87% 29.65 in 2.2 mi ENE 11.5 mph - N/A   Mist
3:00 AM 37.4 °F 29.8 °F 33.8 °F 87% 29.65 in 2.2 mi ENE 11.5 mph - N/A   Overcast
4:00 AM 37.4 °F 28.9 °F 33.8 °F 87% 29.65 in 2.2 mi ENE 13.8 mph - N/A   Overcast
5:00 AM 37.4 °F 29.3 °F 33.8 °F 87% 29.65 in 2.2 mi ENE 12.7 mph - N/A   Overcast
6:00 AM 37.4 °F 30.3 °F 33.8 °F 87% 29.65 in 2.2 mi ENE 10.4 mph - N/A   Overcast
7:00 AM 37.4 °F 32.8 °F 33.8 °F 87% 29.65 in 2.2 mi NE 5.8 mph - N/A   Mostly Cloudy
8:00 AM 37.4 °F 30.8 °F 33.8 °F 87% 29.65 in 2.8 mi ENE 9.2 mph - N/A   Overcast
8:50 AM 39.2 °F 32.5 °F 33.8 °F 81% 29.65 in 3.7 mi ENE 10.4 mph - N/A   Overcast
9:00 AM 39.2 °F 32.5 °F 33.8 °F 81% 29.65 in 5.0 mi ENE 10.4 mph - N/A   Overcast
10:00 AM 41.0 °F 34.3 °F 33.8 °F 76% 29.65 in 5.6 mi ENE 11.5 mph - N/A   Overcast
11:00 AM 41.0 °F 34.3 °F 33.8 °F 76% 29.65 in 5.6 mi ENE 11.5 mph - N/A   Overcast
12:00 PM 41.0 °F 34.3 °F 33.8 °F 76% 29.65 in 5.6 mi ENE 11.5 mph - N/A   Overcast
1:00 PM 41.0 °F 35.2 °F 33.8 °F 76% 29.65 in 5.0 mi ENE 9.2 mph - N/A   Overcast
2:00 PM 41.0 °F 34.7 °F 35.6 °F 81% 29.62 in 4.3 mi ENE 10.4 mph - N/A   Overcast
3:00 PM 41.0 °F 33.9 °F 33.8 °F 76% 29.62 in 3.7 mi ENE 12.7 mph - N/A   Overcast
4:00 PM 41.0 °F 35.2 °F 35.6 °F 81% 29.62 in 3.7 mi ENE 9.2 mph - N/A   Overcast
5:00 PM 39.2 °F 32.5 °F 33.8 °F 81% 29.62 in 3.7 mi ENE 10.4 mph - N/A   Overcast
5:35 PM 39.2 °F 32.0 °F 33.8 °F 81% 29.62 in 2.8 mi ENE 11.5 mph - N/A   Overcast
6:00 PM 39.2 °F 32.0 °F 33.8 °F 81% 29.62 in 2.5 mi ENE 11.5 mph - N/A   Overcast
7:00 PM 37.4 °F 29.8 °F 33.8 °F 87% 29.62 in 2.5 mi ENE 11.5 mph - N/A Rain Light Rain
8:00 PM 37.4 °F 29.3 °F 35.6 °F 93% 29.62 in - ENE 12.7 mph - N/A Rain Light Rain
8:15 PM 37.4 °F 30.8 °F 35.6 °F 93% 29.62 in 1.7 mi ENE 9.2 mph - N/A Rain Light Rain
9:00 PM 37.4 °F 31.4 °F 35.6 °F 93% 29.62 in 1.6 mi ENE 8.1 mph - N/A Rain Light Rain
10:00 PM 37.4 °F 32.8 °F 35.6 °F 93% 29.62 in 1.6 mi ENE 5.8 mph - N/A Rain Light Rain
11:00 PM 37.4 °F 32.8 °F 35.6 °F 93% 29.59 in 1.2 mi ENE 5.8 mph - N/A Rain Light Rain